Regional Weather Roundup
Issued by NWS

Home | Current Version | Previous Version | Graphics & Text | Print | Product List | Glossary On
Versions: 1 2 3 4 5 6 7 8 9 10 11 12 13 14 15 16 17 18 19 20 21 22 23 24 25 26 27 28 29 30 31 32 33 34 35 36 37 38 39 40 41 42 43 44 45 46 47 48 49 50
000
ASUS43 KFSD 251410
RWRSD

WEATHER ROUNDUP FOR SOUTH DAKOTA
NATIONAL WEATHER SERVICE SIOUX FALLS SD
800 AM CST THU DEC 25 2014

NOTE: "FAIR" INDICATES FEW OR NO CLOUDS BELOW 12,000 FEET WITH NO
SIGNIFICANT WEATHER AND/OR OBSTRUCTIONS TO VISIBILITY.


SDZ001>005-009-010-012>017-251500-
NORTHWEST AND NORTH CENTRAL SOUTH DAKOTA

CITY           SKY/WX    TMP DP  RH WIND       PRES   REMARKS
BUFFALO          N/A     27  23  85 N17       29.59R WCI  14
FAITH            N/A     29  26  89 N9        29.63R WCI  20
MOBRIDGE       CLOUDY    31  26  82 CALM      29.62R
$$

SDZ012>016-024>037-041>051-057-063-072>074-251500-
SOUTHWEST AND SOUTH CENTRAL SOUTH DAKOTA

CITY           SKY/WX    TMP DP  RH WIND       PRES   REMARKS
RAPID CTY ARPT LGT SNOW  30  28  92 N14       29.62R FOG     WCI  19
PIERRE         LGT SNOW  32  31  96 NE9       29.61R FOG     WCI  24
CUSTER         CLOUDY    26  21  81 NE15      29.51R WCI  14
ELLSWORTH AFB  LGT SNOW  30  29  97 N13       29.62R WCI  20
PHILIP         LGT SNOW  32  29  88 NE13      29.61R FOG     WCI  22
PINE RIDGE     CLOUDY    30  26  85 N10       29.55R WCI  21
SPEARFISH      LGT SNOW  27  27 100 NE3       29.64R
WINNER         FAIR      27  23  85 N8        29.56S WCI  19
$$

SDZ004>011-016>023-039-040-251500-
NORTHEAST SOUTH DAKOTA

CITY           SKY/WX    TMP DP  RH WIND       PRES   REMARKS
ABERDEEN       CLOUDY    31  25  78 N9        29.65R WCI  23
WATERTOWN      LGT SNOW  28  26  92 N3        29.61R FOG
SISSETON         N/A     31  27  85 N10       29.63R WCI  22
$$

SDZ017-020-022-023-036>040-048>070-251500-
SOUTHEAST SOUTH DAKOTA

CITY           SKY/WX    TMP DP  RH WIND       PRES   REMARKS
SIOUX FALLS    MOCLDY    28  25  88 NE9       29.59R WCI  19
HURON          LGT SNOW  28  26  92 N7        29.62R FOG     WCI  21
CHAMBERLAIN    CLOUDY    31  28  90 NE3       29.58R
MITCHELL       CLOUDY    29  26  89 N5        29.62R WCI  24
YANKTON        MOCLDY    27  23  86 E6        29.58R WCI  20
$$

ABBREVIATIONS USED IN REMARKS
   TC - TEMPERATURE IN CELSIUS
  WCI - WIND CHILL INDEX
   HX - HEAT INDEX
  VSB - VISIBILITY



USA.gov is the U.S. government's official web portal to all federal, state and local government web resources and services.